Theta_e
351 351 351 348 346 343 340 339 337 331 332 338 338 336 329 327 322 323 326 329 333 338 338 337 336 336 333 326 335 326 323 323 324 328 325 326 325 325 325 325 325 325 325
347 350 350 345 344 342 339 339 336 330 328 335 337 335 328 330 323 323 325 328 335 339 338 338 337 332 326 323 323 322 323 324 325 325 330 330 326 327 329 330 330 332 333
347 349 348 342 343 342 339 340 335 329 325 328 334 332 327 329 324 323 326 329 333 336 334 333 329 327 323 322 322 323 324 326 327 335 339 338 336 337 339 337 337 337 337
345 346 345 342 343 341 339 338 333 329 323 324 328 326 326 330 326 322 326 330 331 331 331 330 329 325 323 322 323 332 325 334 337 340 340 340 340 341 341 340 338 336 333
345 344 343 342 342 340 337 336 332 328 321 320 323 325 325 329 327 322 326 329 329 331 330 329 326 324 323 323 323 335 335 336 339 341 342 341 342 341 342 340 335 331 331
345 345 343 342 341 339 336 334 331 328 320 319 321 323 325 330 326 322 326 328 328 327 327 326 323 323 323 323 328 331 339 341 342 343 342 342 343 343 342 337 334 338 338
345 345 344 343 341 339 336 334 331 329 320 319 320 322 326 329 326 322 325 327 328 327 328 326 323 323 324 324 336 340 340 342 343 342 343 343 343 343 341 336 339 339 337
345 345 344 343 342 339 336 333 331 329 321 319 320 322 327 329 326 322 325 327 328 327 328 323 323 323 323 327 338 339 339 343 344 344 340 342 344 342 337 340 339 337 332
347 345 343 343 343 340 337 334 333 331 324 319 320 324 328 329 326 323 325 327 327 329 325 322 322 322 323 324 329 338 337 342 344 338 338 341 341 338 340 340 339 333 326
348 346 343 343 343 340 338 335 333 333 329 320 320 324 328 329 325 323 325 327 328 330 323 322 322 322 323 323 324 327 335 338 342 336 336 336 338 339 341 340 335 325 324
350 346 344 343 342 341 338 336 334 334 333 326 320 323 327 328 324 327 329 328 332 325 323 322 321 321 322 323 323 323 327 332 327 334 333 337 339 338 339 334 329 325 324
351 346 345 342 340 340 338 336 335 335 334 331 322 321 325 326 325 329 330 331 328 324 322 321 320 320 321 321 321 321 324 332 335 339 339 340 338 337 335 331 328 325 325
349 349 345 343 340 339 339 337 336 335 335 333 328 321 321 323 325 327 326 325 323 323 322 321 320 320 321 323 325 330 334 341 340 340 341 338 338 330 330 330 330 329 327
323 347 348 345 341 340 340 337 336 336 335 334 331 325 321 323 324 325 324 324 323 322 322 321 320 327 330 334 335 339 340 341 339 341 338 338 335 328 330 330 329 326 326
315 323 326 339 345 340 340 339 337 336 334 334 333 329 323 321 322 324 324 324 323 322 322 320 323 332 335 338 339 340 341 340 340 338 337 339 335 330 329 328 326 326 327
315 316 318 320 335 344 341 339 337 336 336 335 334 331 328 323 321 321 323 324 323 322 322 321 323 335 338 340 340 340 341 340 339 338 339 339 333 330 329 327 328 329 329
315 316 316 316 324 338 345 343 340 337 337 336 334 333 329 326 323 321 322 323 323 322 322 322 328 334 339 341 341 341 340 340 337 338 337 334 332 330 330 329 329 330 330
314 316 316 317 317 324 333 348 344 340 337 337 336 335 331 328 325 323 322 323 323 323 322 321 332 335 339 341 342 343 343 340 339 339 334 331 332 331 331 330 330 331 331
313 315 315 316 316 320 321 337 349 345 341 338 337 336 334 331 327 324 322 321 324 324 323 325 333 338 338 340 343 344 343 340 340 340 336 332 333 333 332 332 332 331 331
313 314 315 315 315 320 328 333 342 347 344 341 339 337 335 334 330 326 323 321 324 324 324 327 337 340 341 342 346 344 344 342 341 340 338 334 333 333 333 332 331 331 332
313 314 315 315 315 315 334 333 336 340 341 346 342 338 336 335 333 328 324 321 323 324 325 329 338 340 341 342 345 344 343 342 341 338 336 333 333 334 332 332 331 328 324
313 313 315 315 315 317 317 323 325 330 343 343 347 341 338 336 335 332 326 322 321 330 330 329 337 339 340 342 344 342 338 335 335 335 334 333 332 332 330 328 326 323 320
313 314 314 314 315 315 319 324 332 346 346 347 346 345 339 337 336 334 328 323 321 333 333 337 339 339 341 343 346 342 338 338 329 329 329 329 329 328 325 325 323 318 312
313 313 314 314 314 315 315 325 336 336 343 341 345 348 342 338 337 336 331 324 323 334 337 339 340 341 342 344 344 343 334 329 332 326 324 325 326 326 324 322 319 312 309
314 314 314 314 314 315 315 318 327 340 341 340 343 345 344 338 337 336 334 327 323 335 339 340 341 343 344 345 344 342 334 326 327 330 328 324 324 324 322 320 314 309 309
317 317 316 314 315 315 315 318 323 328 338 343 343 344 345 340 337 336 336 333 323 333 339 342 341 341 342 343 343 342 337 326 328 328 328 326 323 322 321 315 310 309 309
Wind_Speed
28 31 29 26 25 23 21 19 16 16 17 18 16 13 14 17 17 20 20 20 19 17 16 17 16 14 12 10 13 13 14 15 17 16 15 16 14 13 12 11 10 9 7
27 32 30 27 26 24 22 18 16 16 18 19 17 15 15 17 17 20 20 19 17 16 15 15 14 12 11 12 14 15 15 16 16 15 15 15 13 12 11 10 8 7 7
28 32 31 27 27 25 22 19 17 17 17 18 18 16 16 18 18 20 19 18 16 15 14 14 13 11 11 13 15 16 16 17 16 14 12 11 11 10 10 8 7 6 6
29 32 31 28 27 25 23 20 19 17 17 18 19 18 18 19 19 20 19 17 15 14 14 13 11 11 11 13 16 17 16 16 14 12 10 9 8 7 7 7 6 7 7
30 31 31 29 27 25 23 21 19 18 18 18 19 19 19 19 19 20 19 17 15 14 13 12 11 11 12 14 16 16 14 13 10 8 5 5 5 4 5 6 7 8 8
30 31 29 28 26 25 23 21 19 19 18 19 19 19 19 19 20 21 19 17 15 14 13 11 11 12 12 14 15 14 12 10 8 4 1 3 2 2 4 5 7 8 10
30 31 29 27 25 24 23 21 20 19 19 20 20 20 20 20 20 20 19 17 15 13 12 11 11 12 13 13 15 14 11 9 6 3 3 4 2 0 3 5 8 10 12
28 30 30 28 26 24 23 22 21 19 19 20 21 22 21 21 20 20 20 18 16 13 12 12 12 12 13 13 15 13 11 9 5 3 1 3 2 1 4 7 11 13 13
25 29 30 29 27 25 23 22 21 20 20 21 22 23 22 21 21 20 20 18 16 14 12 12 12 12 12 12 14 13 11 9 4 2 1 2 1 2 6 10 13 14 11
22 28 30 31 30 28 26 23 22 21 19 19 21 22 22 21 21 20 20 18 17 14 13 13 13 12 12 11 12 12 12 9 6 4 2 2 0 4 8 12 13 10 8
19 27 29 31 31 30 28 27 24 22 20 19 21 22 21 22 22 20 21 19 17 15 14 14 13 12 11 10 10 10 10 8 6 4 3 2 1 7 11 11 9 7 7
17 27 28 32 32 31 30 29 28 26 25 23 23 25 25 24 23 22 21 20 18 17 16 15 14 13 11 10 9 9 8 7 4 3 4 1 3 7 10 6 6 5 6
12 21 30 32 33 33 33 32 31 30 29 28 26 26 27 27 26 24 23 21 21 19 18 16 15 14 13 11 11 11 8 7 4 1 3 1 5 7 5 4 4 5 6
12 15 22 30 33 35 35 35 34 33 32 31 29 28 29 30 29 28 26 23 22 20 18 17 16 16 15 13 12 10 8 6 4 3 1 2 5 4 4 4 5 6 6
14 15 17 25 33 35 37 37 37 36 34 33 31 30 31 31 31 29 26 24 23 21 19 19 19 18 16 15 12 11 8 6 3 5 3 4 6 4 4 4 4 5 6
13 16 19 23 25 34 37 40 40 38 37 36 34 33 32 32 31 29 27 25 24 21 20 20 21 20 18 15 13 11 9 8 7 6 5 6 5 4 3 4 5 7 9
15 18 20 21 24 29 36 42 43 42 41 40 37 36 34 33 32 29 28 27 25 22 21 21 21 22 20 17 14 12 11 10 8 8 6 6 6 6 6 7 9 11 13
18 18 23 22 24 25 28 39 45 44 43 42 39 37 36 35 31 30 30 29 26 24 23 23 23 22 21 19 14 14 12 11 12 10 8 7 8 8 9 10 12 15 17
22 19 23 25 26 26 24 25 39 45 43 44 42 40 38 34 32 32 31 30 27 26 24 25 24 21 21 20 15 14 13 12 12 12 11 11 11 11 12 14 15 17 18
25 22 18 27 27 28 29 30 33 42 46 47 44 43 39 35 34 33 32 31 29 28 27 27 26 22 20 18 17 15 15 14 14 14 14 13 14 14 15 16 16 19 19
28 25 20 19 24 30 33 35 36 39 41 47 47 45 43 38 35 35 34 33 31 30 29 29 26 24 22 19 17 15 14 14 15 15 15 16 16 16 17 16 15 17 18
23 27 25 20 22 27 32 36 38 40 40 43 48 46 45 40 37 37 34 34 33 30 30 31 29 26 24 21 16 11 7 10 13 14 14 15 14 15 15 15 16 17 19
24 24 25 22 24 25 25 32 34 34 35 38 43 46 46 42 41 37 35 34 33 31 32 31 30 28 25 25 23 14 7 10 10 12 13 13 13 15 16 16 17 19 20
21 24 27 26 21 22 23 27 34 38 40 41 41 44 48 45 43 39 37 35 34 35 34 30 29 27 28 28 26 25 20 11 7 6 14 15 16 17 17 18 18 20 20
10 17 21 23 23 26 25 26 29 35 34 33 35 37 47 48 44 40 38 35 36 36 36 34 30 25 27 28 25 24 24 19 14 8 6 12 17 18 18 18 19 20 21
5 8 12 20 24 27 28 27 28 30 33 30 32 33 40 48 45 42 40 37 39 38 37 35 30 27 26 27 26 26 23 18 16 13 10 11 11 16 19 19 20 21 22
Wind_Direction
178 176 174 178 176 175 174 172 175 178 175 168 165 163 159 155 152 152 150 148 149 146 145 147 147 151 150 142 136 134 131 127 123 117 107 105 105 97 91 85 77 66 54
182 180 178 180 178 179 175 179 184 184 179 179 176 173 164 158 156 158 155 155 154 151 151 152 154 155 150 143 138 136 135 130 124 118 108 101 100 97 92 85 76 63 43
187 181 181 182 179 180 178 190 190 189 186 183 182 178 170 164 163 163 161 159 157 160 159 159 155 150 149 144 138 137 135 127 124 118 108 103 99 94 84 77 66 47 25
189 183 182 184 182 182 187 193 193 193 191 186 182 179 175 169 167 166 165 161 159 163 163 161 153 149 152 147 143 141 138 131 125 119 107 112 101 93 77 58 37 17 6
190 186 184 186 186 186 191 193 194 193 192 189 184 179 176 173 171 170 169 166 163 163 162 163 157 156 159 152 151 149 139 141 134 113 117 126 104 80 55 29 10 2 358
191 189 187 187 190 190 192 195 194 192 193 191 187 182 179 177 176 174 173 173 172 168 166 165 163 164 165 157 157 158 153 145 131 111 136 161 151 76 30 6 359 353 344
193 191 188 189 194 195 195 197 197 195 193 191 188 185 183 181 180 179 179 182 182 179 174 173 171 172 171 168 166 163 159 151 136 93 75 174 159 64 352 351 346 345 339
197 193 190 191 197 200 199 200 199 197 195 192 189 187 185 184 184 183 186 189 189 188 181 181 179 179 176 178 176 175 174 167 159 173 144 184 208 323 344 344 342 340 333
198 198 194 193 197 202 204 204 203 202 199 195 192 189 187 188 188 188 192 194 193 190 188 186 187 187 182 186 190 189 193 188 187 211 211 191 238 338 338 341 337 338 346
205 198 200 199 197 200 202 206 208 206 205 201 196 193 191 192 191 193 197 197 194 192 190 192 193 193 190 191 195 199 203 204 213 224 233 236 268 333 338 334 337 348 7
212 203 203 205 205 203 204 204 206 211 210 206 200 199 197 196 195 197 199 197 196 194 194 197 197 197 193 191 192 197 204 207 208 208 229 194 292 333 327 336 345 3 20
239 213 209 211 213 209 209 211 207 207 207 207 206 201 201 202 200 200 200 200 199 196 196 197 197 197 194 187 183 180 172 167 176 187 170 178 330 319 322 333 360 21 17
269 238 220 215 215 215 213 213 212 212 209 209 209 208 206 204 203 203 204 202 201 198 196 198 196 193 187 178 172 165 165 157 151 183 203 303 318 320 318 336 356 357 354
290 263 244 236 225 218 217 218 217 215 215 214 213 211 210 208 207 206 205 205 203 202 199 197 195 189 179 176 174 170 170 177 193 195 247 302 328 310 322 339 342 351 2
287 262 257 248 241 232 224 223 222 221 222 220 218 216 216 216 213 210 209 207 206 204 200 198 194 189 186 185 185 183 190 200 227 219 259 295 300 295 314 321 329 342 332
280 261 264 263 251 236 233 232 230 226 225 222 221 223 221 221 221 216 214 212 209 207 203 200 198 194 192 193 193 190 199 205 232 241 268 283 268 274 284 283 293 310 312
294 265 252 255 251 243 240 238 234 232 229 227 225 224 226 227 225 221 219 216 214 210 206 203 199 199 200 202 203 201 205 213 227 237 254 250 245 263 265 277 287 302 305
290 281 250 240 251 246 246 239 236 234 234 232 227 228 230 230 229 225 222 219 216 214 208 205 201 203 205 207 212 223 226 222 231 235 242 246 245 258 269 269 284 294 297
278 287 259 238 245 243 240 239 236 237 236 235 230 230 231 232 230 228 225 222 219 216 212 207 202 205 211 214 224 223 226 230 225 237 246 250 254 266 269 274 280 288 290
270 272 287 247 242 242 241 235 235 237 236 235 232 232 233 233 230 228 227 223 220 219 215 208 205 210 212 216 223 225 231 231 232 242 251 256 263 270 273 274 280 284 289
254 258 272 276 252 239 234 231 233 233 237 236 232 230 233 233 231 230 225 223 220 221 217 212 210 211 216 219 219 225 229 233 236 243 253 255 260 268 273 273 280 285 292
252 243 250 269 262 248 241 240 239 237 234 238 235 227 227 230 233 231 227 223 220 219 216 212 212 213 218 221 209 212 218 235 237 241 248 248 254 262 265 274 285 290 294
251 247 250 250 260 259 251 243 236 231 230 229 236 229 226 223 230 230 228 225 220 216 212 211 216 221 225 220 220 216 210 235 211 231 241 245 250 258 265 276 285 294 297
251 248 246 246 250 252 259 246 233 232 226 232 236 232 225 221 223 225 226 224 219 214 211 215 224 232 229 223 222 228 236 242 198 214 246 248 254 259 267 277 289 296 301
272 262 255 244 246 244 249 253 246 238 238 242 238 239 226 223 222 224 225 223 220 219 215 218 224 228 224 227 236 240 238 240 244 229 234 251 261 264 271 280 291 298 301
284 266 261 236 230 235 239 244 247 246 240 232 238 239 229 225 221 222 225 223 221 218 217 223 224 225 229 236 239 247 248 236 247 247 245 258 253 272 276 285 290 299 305